Location: Aranbee
(34.0885°N, 118.2342°W)
Time: 12:25:07
(UTC+00:00)

Tiros 1 - Pass Details

Date: 30 November 2020
Orbit: 630 x 663 km, 48.4° (Epoch: 21 January)

Event Time Altitude Azimuth Distance (km) Brightness Sun altitude
Rises 20:18:32 0° 191° (S) 2,971 11.6 33.4°
Reaches altitude 10° 20:21:29 10° 173° (S) 2,066 11.0 33.3°
Maximum altitude 20:24:45 18° 130° (SE) 1,585 9.7 33.2°
Drops below altitude 10° 20:28:02 10° 86° (E) 2,076 9.7 33.0°
Sets 20:30:59 0° 68° (ENE) 2,991 10.3 32.9°
